Home > Time Zones > World Clock > Weather > U.S.A. > Napa > Past weeks

Flag for U.S.A. Weather past 2 weeks in Napa, California, U.S.A.

Now
44 °F

Clear.


Feels Like: 38 °F
Forecast: 38 / 54 °F
Wind: 12 mph from North

Location: Napa County Airport

Current Time: Dec 26, 2014 at 6:22:02 AM

Latest Report: Dec 26, 2014 at 5:54 AM


Visibility: 10 mi

Pressure: 30.13 "Hg

Humidity: 53%

Dew point: 28 °F

Location of NapaLocation

Historic Weather in Napa — Graph

°F

Napa temperature yesterday

Maximum temperature yesterday: 58 °F (at 1:54 PM)
Minimum temperature yesterday: 35 °F (at 6:54 AM)
Average temperature yesterday: 45 °F

Past Weeks' High & Low Weather Summary

 TemperatureHumidityPressure
High64 °F (Dec 21, 1:54 PM)100% (Dec 11, 9:02 AM)30.30 "Hg (Dec 11, 9:02 AM)
Low35 °F (Dec 25, 6:54 AM)33% (Dec 25, 1:54 PM)29.47 "Hg (Dec 11, 6:54 AM)
Average51 °F91%30.04 "Hg
* Reported Dec 11 4:54 AM — Dec 26 4:54 AM, Napa, Weather by CustomWeather, © 2014

Note: Actual official high and low records may vary slightly from our data, if they occured in-between our weather recording intervals... More about our weather records

Advertising

Napa weather history for previous 24 hours

 ConditionsComfort  
Time TempWeatherWind HumidityBarometerVisibility
4:54 AM
Dec 26
46 °FClear.14 mph51%30.12 "Hg10 mi
3:54 AM46 °FClear.15 mph51%30.12 "Hg10 mi
2:54 AM46 °FClear.12 mph51%30.11 "Hg10 mi
1:54 AM43 °FClear.12 mph62%30.10 "Hg10 mi
12:54 AM43 °FClear.16 mph65%30.09 "Hg10 mi
11:54 PM
Dec 25
42 °FClear.9 mph68%30.09 "Hg10 mi
10:54 PM40 °FClear.8 mph77%30.11 "Hg10 mi
9:54 PM42 °FClear.5 mph73%30.10 "Hg10 mi
8:54 PM42 °FClear.8 mph68%30.09 "Hg10 mi
7:54 PM45 °FClear.12 mph58%30.09 "Hg10 mi
6:54 PM45 °FClear.12 mph56%30.09 "Hg10 mi
5:54 PM48 °FClear.8 mph48%30.08 "Hg10 mi
4:54 PM52 °FClear.10 mph41%30.06 "Hg10 mi
3:54 PM56 °FSunny.15 mph36%30.04 "Hg10 mi
2:54 PM58 °FSunny.22 mph33%30.03 "Hg10 mi
1:54 PM58 °FSunny.21 mph33%30.04 "Hg10 mi
12:54 PM57 °FSunny.15 mph42%30.06 "Hg10 mi
11:54 AM54 °FSunny.3 mph55%30.10 "Hg10 mi
10:54 AM52 °FSunny.6 mph57%30.11 "Hg10 mi
9:54 AM47 °FSunny.6 mph66%30.14 "Hg10 mi
8:54 AM44 °FSunny.8 mph76%30.13 "Hg10 mi
7:54 AM38 °FSunny.7 mph90%30.12 "Hg10 mi
6:54 AM35 °FClear.5 mph96%30.10 "Hg10 mi
Weather by CustomWeather, © 2014

See weather overviewHow to use our weather pages